Location: Salisbury
(38.3600°N, 75.6000°W)
Time: 16:31:03
(UTC-04:00)

Daily predictions for brighter satellites

Satellite Brightness Start Highest point End
(mag) Time Altitude Azimuth Time Altitude Azimuth Time Altitude Azimuth
ERS-2 2.5 20:35:50 10° SSE 20:39:24 48° ENE 20:42:58 10° N
Resurs 01 Rocket 2.0 20:36:18 10° SSE 20:40:32 47° ENE 20:44:46 10° N
Okean 3 3.6 20:36:21 10° S 20:40:33 55° E 20:44:44 10° NNE
Cosmos 304 Rocket 4.1 20:39:30 10° S 20:44:04 45° ESE 20:48:39 10° NNE
ISS -3.8 20:42:27 10° SW 20:45:43 88° SE 20:49:00 10° NE
Abrixas rocket 2.4 20:52:24 10° SW 20:55:29 46° SE 20:58:36 10° ENE
Cosmos 2151 Rocket 4.0 20:51:44 10° NNW 20:56:09 65° W 21:00:30 10° S
Cosmos 2084 4.5 20:54:34 10° S 20:58:08 24° ESE 21:01:33 10° ENE
BREEZE-M R/B 3.1 20:56:26 10° WSW 21:01:52 71° NW 21:04:50 10° NE
Spot 2 Rocket 3.6 20:57:40 10° SSE 21:02:38 63° ENE 21:07:37 10° N
Timation 2 Rocket 4.2 20:57:14 10° S 21:02:48 44° ESE 21:08:28 10° NE
Cosmos 1300 Rocket 3.7 20:58:28 10° N 21:02:51 79° W 21:07:10 10° S
Cosmos 2082 Rocket 4.1 20:59:56 10° SW 21:05:03 35° WNW 21:10:13 10° N
USA 238 DEB 4.2 21:00:19 10° SW 21:07:07 66° NW 21:14:03 10° NNE
USA 238 4.2 21:00:26 10° SW 21:07:13 67° NW 21:14:09 10° NNE
NOAA 11 4.2 21:01:49 10° SSE 21:07:14 70° ENE 21:12:41 10° N
GPS 2-04 Rocket1 3.5 21:03:17 10° W 21:07:16 41° SSW 21:10:34 14° SE
Cosmos 468 Rocket 4.3 21:02:35 10° S 21:07:37 46° ESE 21:12:37 10° NNE
Cosmos 2322 Rocket 3.3 21:04:06 10° N 21:09:00 30° ENE 21:13:09 13° ESE
Tiangong 2 1.0 21:06:51 10° WSW 21:09:59 82° SSE 21:13:09 10° ENE
ARGOS 3.8 21:11:32 13° SE 21:15:51 39° ENE 21:20:50 10° N
SL-16 R/B 3.0 21:11:47 10° N 21:17:01 36° ENE 21:21:03 16° ESE
Cosmos 1763 Rocket 4.1 21:12:31 10° SSE 21:17:18 35° E 21:22:04 10° NE
USA 186 3.8 21:15:20 10° SSW 21:18:05 28° W 21:20:59 10° NW
Cosmos 1570 Rocket 4.1 21:18:45 10° SSW 21:24:06 84° WNW 21:29:29 10° NNE
Atlas Centaur 2 2.4 21:21:35 10° WSW 21:24:36 23° S 21:25:51 19° SSE
ATLAS CENTAUR R/B 2.3 21:22:29 10° NW 21:26:57 52° WSW 21:31:05 13° S
Cosmos 1975 2.7 21:25:17 10° N 21:29:20 77° E 21:32:28 16° SSE
BREEZE M DEB (TANK) 4.1 21:19:59 10° WNW 21:31:31 52° NNE 21:34:41 15° E
Tsikada Rocket 4.2 21:26:51 10° N 21:33:17 78° W 21:39:40 10° S
USA 234 3.7 21:33:04 10° NE 21:39:33 65° NW 21:46:02 10° WSW
NOSS 3-2 (A) 4.0 21:33:56 10° SW 21:39:43 62° NW 21:46:09 10° NNE
Meteor 1-19 Rocket 4.3 21:34:58 10° S 21:40:50 74° E 21:46:45 10° NNE
Meteor 1-12 Rocket 4.3 21:37:14 10° N 21:43:12 86° E 21:48:05 16° S
Shenzhou-11 Module 3.5 21:41:03 10° WNW 21:43:47 32° N 21:45:53 15° ENE
NOSS 3-2 (C) 3.5 21:38:30 10° SW 21:44:21 80° WNW 21:50:50 10° NNE
H-2A R/B 2.2 21:41:38 23° SE 21:44:31 54° ENE 21:49:24 10° N
MetOp-B 4.2 21:45:41 23° SSE 21:49:04 66° ENE 21:54:23 10° N
ERS-1 Rocket 3.3 21:47:52 26° SE 21:50:27 50° ENE 21:55:18 10° N
Cosmos 1898 Rocket 3.5 21:45:24 10° NNW 21:50:44 84° ENE 21:53:56 25° SSE
Cosmos 1455 Rocket 3.6 21:47:26 10° N 21:51:35 41° ENE 21:53:03 31° SE
Cosmos 1356 4.3 21:53:13 30° E 21:53:13 30° E 21:56:12 10° NNE
SPOT 5 3.7 21:51:45 24° E 21:53:09 29° ENE 21:57:03 10° N
Cosmos 1814 Rocket 3.9 21:49:47 10° S 21:54:58 75° ESE 22:00:17 10° NNE
DMSP B5D2-2 4.5 21:50:05 10° NNE 21:55:07 43° E 21:57:22 28° SSE
SL-08 RB Rocket 3.6 21:55:16 29° SSE 21:57:30 74° ENE 22:02:03 10° N
CSL-04 DEB 4.4 21:57:04 33° SSE 21:58:52 73° ENE 22:03:00 10° N
Cosmos 1975 Rocket 3.5 21:55:26 10° SSW 21:59:42 60° W 22:04:00 10° N
Cosmos 2360 Rocket 3.2 21:55:08 10° N 22:00:13 33° ENE 22:02:36 24° ESE
Cosmos 1980 Rocket 3.8 21:57:55 10° NW 22:02:43 29° WSW 22:07:31 10° SSW
ATLAS CENTAUR R/B 4.4 21:57:01 10° SW 22:03:24 76° NW 22:23:38 10° NE
Cosmos 1242 Rocket 3.1 22:00:36 10° NNW 22:04:10 54° W 22:05:47 28° SSW
Cosmos 2219 Rocket 4.4 22:03:13 10° NNE 22:04:59 11° NE 22:06:45 10° ENE
Meteor 2-20 4.4 22:00:47 10° N 22:06:57 82° E 22:10:32 27° SSE
Cosmos 1666 4.0 22:04:54 10° NNW 22:08:30 38° W 22:10:56 18° SSW
Terra 3.2 22:07:33 21° E 22:08:36 23° ENE 22:12:19 10° NNE
Meteor 1-23 Rocket 4.4 22:06:43 32° SSE 22:09:00 50° E 22:14:21 10° NNE
Meteor 2-20 Rocket 4.5 22:04:32 10° N 22:10:39 67° E 22:13:35 32° SSE
Meteor 2-9 Rocket 4.0 22:05:23 10° N 22:10:45 85° E 22:13:23 32° SSE
CZ-2C R/B 4.5 22:07:49 10° NE 22:10:36 15° E 22:10:36 15° E
CENTAUR R/B 2.3 22:05:32 10° SSW 22:11:19 73° ESE 22:17:58 10° NE
Cosmos 990 Rocket 4.0 22:08:01 10° NNW 22:13:16 84° WSW 22:15:32 35° SSE
Cosmos 1743 4.2 22:12:01 10° NNW 22:15:29 33° W 22:17:39 18° SW
Lacrosse 5 rocket 3.3 22:12:27 10° NNW 22:15:45 21° NNE 22:17:34 16° ENE
Resurs 01 Rocket 4.3 22:14:57 10° SW 22:17:15 14° W 22:19:33 10° WNW
Cosmos 1072 Rocket 4.5 22:12:43 20° S 22:17:20 86° E 22:23:40 10° N
Cosmos 1544 Rocket 3.5 22:14:14 10° N 22:18:40 88° ENE 22:20:00 46° S
Cosmos 2333 Rocket 4.4 22:16:13 10° NNE 22:18:59 14° NE 22:21:38 10° ENE
Cosmos 2150 Rocket 4.0 22:17:07 10° NNW 22:22:32 81° ENE 22:24:19 43° SSE
ISS -0.6 22:20:29 10° WNW 22:22:36 16° NNW 22:24:42 10° NNE
COSMOS 2428 4.3 22:18:18 10° N 22:22:39 22° NE 22:24:38 18° E
Helios 1A 2.9 22:22:56 57° SE 22:23:37 70° ENE 22:27:46 10° N
Meteor 2-4 Rocket 4.0 22:22:14 16° SSW 22:26:36 64° W 22:32:07 10° N
Cosmos 1833 4.1 22:25:17 19° SSW 22:29:30 85° ESE 22:35:13 10° NNE
Abrixas rocket 4.4 22:29:13 10° W 22:32:01 26° NNW 22:34:49 10° NE
Cosmos 1536 Rocket 3.5 22:31:58 54° S 22:32:58 90° SSW 22:37:27 10° N
Nadezhda 4 Rocket 4.3 22:27:32 10° N 22:33:43 53° E 22:35:30 41° SE
SJ 16-02 2.0 22:30:40 10° N 22:34:53 40° ENE 22:35:06 40° ENE
Aureole 2 Rocket 3.3 22:32:50 10° NNW 22:34:51 39° NNW 22:34:51 39° NNW
Spot 1 4.3 22:36:59 49° ENE 22:36:59 49° ENE 22:40:56 10° N
Cosmos 1340 Rocket 3.8 22:38:31 29° SW 22:40:09 45° WNW 22:44:04 10° N
Cosmos 2298 Rocket 4.4 22:37:18 10° NNW 22:42:30 58° WSW 22:44:06 41° SSW
Tiangong 2 2.6 22:43:57 10° WNW 22:46:40 36° NNW 22:46:40 36° NNW
Okean 2 3.5 22:48:13 67° NE 22:48:13 67° NE 22:52:01 10° NNE
Cosmos 2322 3.9 22:42:30 10° NNW 22:48:11 61° ENE 22:49:20 50° ESE
Cosmos 1515 4.5 22:49:22 44° WSW 22:49:53 47° W 22:53:36 10° N
CZ-2C R/B 3.5 22:50:39 44° E 22:51:22 47° ENE 22:56:39 10° N
Cosmos 2322 Rocket 3.2 22:47:58 10° NW 22:53:03 36° WSW 22:55:00 28° SW
Cosmos 2237 Rocket 4.3 22:53:14 10° NNE 22:56:24 15° NE 22:58:28 13° ENE
Cosmos 540 Rocket 3.6 22:54:43 38° SW 22:56:39 69° WNW 23:01:49 10° NNE
Cosmos 1066 Rocket 4.1 22:57:24 59° ESE 22:57:37 59° E 23:02:57 10° NNE
Cosmos 1356 Rocket 3.7 22:59:33 62° NE 22:59:33 62° NE 23:03:14 10° NNE
Cosmos 2034 Rocket 4.2 22:56:40 33° SSW 22:59:31 66° W 23:05:40 10° N
SL-16 R/B 3.6 22:56:07 10° NW 23:00:57 29° WSW 23:02:55 24° SW
Helios 1B rocket 3.0 22:58:52 10° N 23:02:54 52° WNW 23:03:22 49° W
CARTOSAT-1 3.6 23:05:34 76° WNW 23:05:34 76° WNW 23:09:40 10° NNW
Meteor 1-15 Rocket 4.4 23:00:04 10° NNW 23:05:45 65° W 23:07:01 51° SSW
IGS 5A 3.7 23:07:25 67° NW 23:07:25 67° NW 23:11:12 10° NNW
Cosmos 2237 4.1 23:10:29 10° NNW 23:16:14 81° WSW 23:16:47 72° S
Cosmos 2219 3.4 23:16:52 55° E 23:16:52 55° E 23:22:03 10° NNE
Cosmos 372 Rocket 3.9 23:15:01 10° NNW 23:20:07 78° WSW 23:20:07 78° WSW
YAOGAN 11 4.4 23:21:44 68° NW 23:21:44 68° NW 23:25:45 10° NNW
Cosmos 1627 Rocket 4.5 23:17:22 10° N 23:23:27 61° E 23:23:55 59° ESE
H-2A R/B 4.2 23:22:15 12° WSW 23:24:17 15° W 23:27:06 10° WNW
Cosmos 1025 Rocket 3.7 23:25:46 50° WNW 23:25:46 50° WNW 23:29:48 10° N
Cosmos 1606 Rocket 4.4 23:21:58 10° N 23:25:21 45° NNE 23:25:21 45° NNE
Cosmos 2195 Rocket 4.3 23:22:16 10° N 23:28:24 71° E 23:28:52 68° ESE
Cosmos 1634 Rocket 3.9 23:27:48 70° SSE 23:28:35 84° E 23:34:58 10° N
SPOT 5 4.4 23:30:59 22° W 23:31:14 22° W 23:34:44 10° NW
Cosmos 2333 4.1 23:35:59 10° NNW 23:41:35 81° W 23:41:35 81° W
CZ-4C R/B 3.0 23:34:30 10° NNW 23:41:49 72° NE 23:43:41 54° ESE
Cosmos 2360 Rocket 3.3 23:39:10 10° NW 23:44:07 32° WSW 23:44:22 32° WSW
Cosmos 1125 Rocket 4.1 23:40:56 10° NNW 23:45:40 48° W 23:45:40 48° W
Terra 3.0 23:46:26 34° W 23:46:26 34° W 23:50:28 10° NNW
Cosmos 2219 Rocket 2.2 23:44:17 10° NNW 23:49:36 74° NE 23:49:36 74° NE
CZ-2C R/B 2.9 23:46:11 10° N 23:51:45 66° WNW 23:52:08 64° W
H-2A R/B 4.1 23:53:44 20° NE 23:53:44 20° NE 23:56:05 10° NNE
ADEOS Rocket 4.2 23:48:43 10° NE 23:52:05 26° ENE 23:52:05 26° ENE
Lacrosse 5 rocket 3.2 23:51:10 10° NW 23:53:13 26° WNW 23:53:13 26° WNW
